sat.trackr.live / text

‹ back to catalog

2023-091P

NORAD 57179 · 2023-091P

PAYLOAD ACTIVE UNKNOWN

§ Identity

Operator
Country
CIS
Launch date
2023-06-27
Launch site
VOSTO
Launch vehicle
Mass (kg)
RCS (m²)

External: N2YO · Heavens-Above · Gunter

§ Orbital elements

Epoch: 2026-05-25T04:31:02.464608Z

Period
94.97 min
Inclination
97.5108°
Eccentricity
0.0014446
Mean motion
15.16278569 rev/d
Perigee alt
507.1 km
Apogee alt
527.1 km
Semi-major
6,895.2 km
B*
1.9690e-4
RAAN
201.4060°
Arg perigee
198.9152°
Mean anomaly
161.1546°
Rev number
16,030

§ Raw data

2023-091P1 57179U 23091P   26145.18822297  .00003753  00000+0  19690-3 0  99962 57179  97.5108 201.4060 0014446 198.9152 161.1546 15.16278569160302

JSON: /api/v1/satellites/57179 · /tle

For live sub-satellite position, see the globe view (requires WebGL).

§ Visibility from observer

Set your observer location to see the next 7 days of passes ≥ 10°. The values pass through the URL so the page stays shareable.

No JS? Fill the form by hand. The geolocation button needs JavaScript.

§ Radio — SatNOGS DB

ModeDescriptionDownlinkUplink
GFSK Mode U - GFSK9k6 436.700 MHz
GFSK Mode U - GFSK9k6 436.500 MHz
LoRa Mode U - LoRa (SF:10 CR:5 BW:250) 436.500 MHz

3 transmitters · refreshed weekly from db.satnogs.org